Temperature
18 18 18 18 18 18 18 18 18 18 17 18 18 18 17 17 17 17 18 18 18 18 17 17 17 17 17 18 18 18 18 18 18 18 18 18 18 18 18 18 18 18 18
18 18 18 18 18 18 17 17 17 17 17 17 17 17 17 17 17 17 17 17 17 17 17 17 17 17 17 17 18 18 18 18 18 17 17 18 18 18 18 18 18 18 18
18 18 18 18 18 17 17 17 17 17 17 17 17 17 17 17 17 17 17 17 17 17 17 17 17 17 17 17 17 18 17 17 17 17 17 17 17 18 18 18 18 18 18
18 18 18 18 18 17 17 17 17 17 17 17 17 17 17 17 17 17 17 17 17 17 17 17 17 17 17 17 17 17 17 17 17 17 17 17 17 17 17 18 18 18 18
18 18 18 17 17 17 17 17 17 17 17 17 17 17 17 17 17 17 17 17 17 17 17 17 17 17 17 17 17 17 17 17 17 17 17 17 17 17 17 17 17 18 18
17 18 18 18 17 17 17 17 17 17 17 17 16 16 17 17 17 17 17 17 17 17 17 17 17 17 17 17 17 17 17 17 17 17 17 17 17 17 17 17 17 17 17
17 18 18 18 17 17 17 17 17 17 17 17 17 16 16 17 17 17 17 16 17 17 17 17 17 17 17 17 17 17 17 16 17 17 17 17 17 17 17 17 17 17 17
18 18 18 18 17 17 17 17 17 17 17 17 17 17 17 17 17 16 16 16 16 17 17 17 17 17 17 17 17 17 17 16 16 16 17 17 17 17 17 17 17 17 17
18 18 18 18 17 17 17 17 17 17 17 17 17 17 17 17 17 17 16 16 16 16 17 17 17 17 17 17 17 17 16 16 16 16 16 17 17 17 17 17 17 17 17
18 18 18 17 17 17 17 17 17 17 17 17 17 17 17 17 16 16 16 16 16 16 16 17 17 17 16 16 16 16 16 16 16 16 16 16 16 17 17 17 17 17 17
18 18 18 18 17 17 17 17 17 17 17 17 17 17 17 16 16 16 16 16 16 16 16 16 16 16 16 16 16 16 16 16 16 16 16 16 16 16 16 16 16 16 16
18 18 18 18 18 17 17 17 17 17 17 17 17 17 17 16 16 16 16 16 16 16 16 16 16 16 16 16 16 16 16 16 16 16 16 16 16 16 16 16 16 16 16
18 18 18 18 18 18 17 17 17 17 17 17 17 17 17 17 16 16 16 16 16 16 16 16 16 16 16 16 16 16 16 16 16 16 16 16 16 16 16 16 16 16 16
18 18 18 18 18 18 17 17 17 17 17 17 17 17 17 17 16 16 16 16 16 16 16 16 16 16 16 16 16 16 16 16 15 15 15 15 15 15 16 16 16 16 16
19 18 18 18 18 18 18 17 17 17 17 17 17 17 17 17 16 16 16 16 16 16 16 16 16 16 16 16 16 16 15 15 15 15 15 15 15 15 15 16 16 16 16
19 18 18 18 18 18 18 18 17 17 17 17 17 17 17 17 17 16 16 16 16 16 16 16 16 16 16 16 15 15 15 15 15 15 15 15 15 15 15 15 15 15 15
19 19 18 18 18 18 18 17 17 17 17 17 17 17 17 17 16 16 16 16 16 16 16 16 16 16 15 15 15 15 15 15 15 14 14 14 14 15 15 15 15 15 15
19 19 18 18 18 18 17 17 17 17 17 17 17 17 17 16 16 16 16 16 16 16 16 16 15 15 15 15 15 15 15 14 14 14 14 14 14 14 14 14 14 14 14
19 19 18 18 18 18 17 17 17 17 17 16 16 16 16 16 16 16 16 16 16 16 16 15 15 15 15 15 15 15 14 14 14 14 14 14 14 14 14 14 14 14 14
19 19 18 18 18 18 17 17 17 17 16 16 16 16 16 16 16 16 16 16 16 15 15 15 15 15 15 15 15 15 14 14 14 14 14 14 14 14 13 13 13 13 13
19 18 18 18 17 17 17 17 17 16 16 16 16 16 16 16 16 16 16 15 15 15 15 15 15 15 15 15 15 15 14 14 14 14 14 14 14 13 13 13 13 13 13
18 18 18 18 17 17 17 17 16 16 16 16 16 16 16 15 15 15 15 15 15 15 15 15 15 15 15 15 15 15 14 14 14 14 14 14 13 13 13 13 13 13 13
18 18 18 18 17 17 17 17 16 16 16 16 16 16 15 15 15 15 15 15 15 15 15 15 15 15 15 15 15 15 14 14 14 14 14 13 13 13 13 13 13 12 13
18 18 18 18 17 17 17 17 16 16 16 16 15 15 15 15 15 15 15 15 15 15 15 15 15 15 15 15 15 15 15 15 14 13 13 13 13 13 13 12 12 12 12
18 18 18 17 17 17 17 17 16 16 16 16 16 15 15 15 15 15 15 15 15 15 15 15 15 15 15 15 15 15 15 15 15 14 13 13 13 13 12 12 12 12 12
18 18 17 17 17 17 17 17 16 16 16 16 16 15 15 15 15 15 15 15 15 15 15 14 14 14 15 15 15 15 14 14 14 14 14 13 13 12 12 12 12 12 12
Wind_Speed
7 9 11 11 12 12 12 12 13 12 12 13 13 12 12 12 12 12 12 12 11 11 11 11 11 11 11 11 10 10 10 10 10 11 12 13 12 12 13 12 12 11 12
9 11 12 12 12 12 12 12 13 12 12 13 13 12 12 12 12 12 12 12 12 11 11 12 11 11 10 10 10 10 9 9 8 9 11 13 13 13 13 13 14 12 13
10 12 12 12 12 12 12 12 12 12 12 13 13 12 12 12 12 12 12 12 12 12 12 12 12 11 10 10 10 10 9 9 8 7 8 10 12 13 13 13 14 14 13
11 12 11 11 12 12 12 12 12 12 12 12 12 13 13 12 12 12 11 12 12 12 13 13 13 13 13 11 10 10 9 9 9 9 10 12 12 13 13 13 13 13 13
11 13 12 12 12 11 12 12 12 11 11 12 12 12 12 12 12 12 11 12 12 13 13 13 13 14 14 13 11 10 9 9 9 10 13 14 12 13 13 13 13 13 13
11 13 12 12 12 11 11 11 11 11 11 11 12 12 11 11 11 11 11 12 12 12 13 13 13 13 13 12 11 10 9 9 10 11 12 13 12 13 13 13 12 12 12
9 12 12 12 11 10 10 10 10 11 11 11 11 11 10 10 11 11 11 12 12 12 12 12 13 13 12 11 11 11 11 9 10 12 12 12 12 13 13 13 13 13 12
9 10 12 12 11 10 10 10 10 10 10 10 10 10 10 10 10 11 11 12 12 11 11 12 12 12 11 11 11 11 12 13 13 12 13 12 13 13 13 13 13 13 13
8 8 10 11 11 10 10 10 9 9 9 9 9 9 10 10 9 10 11 11 11 11 10 10 10 10 10 10 9 10 12 13 12 12 13 12 13 13 13 13 13 13 13
7 6 6 9 11 11 10 9 8 8 8 8 8 8 8 9 9 9 10 10 10 10 9 9 8 9 8 8 8 9 10 11 14 14 12 12 13 13 13 13 13 13 13
6 5 5 6 7 9 10 9 8 8 7 6 6 7 7 7 8 9 9 9 9 8 7 6 5 5 5 6 6 8 9 10 14 13 12 13 13 13 13 13 13 13 12
5 5 5 5 4 5 6 8 7 7 7 6 6 6 5 6 9 10 9 8 7 6 5 3 3 3 2 4 7 8 10 12 12 12 12 14 14 13 13 13 13 12 12
6 5 4 4 4 4 4 4 3 4 4 3 4 6 6 7 7 8 7 6 5 5 3 3 2 1 5 7 8 10 11 11 11 12 13 15 14 14 14 13 12 12 12
6 4 3 4 4 4 5 4 3 2 2 4 4 6 5 3 3 4 4 4 4 4 4 4 4 6 8 8 9 10 11 10 11 11 13 16 15 15 15 14 14 13 12
7 5 3 3 4 4 4 2 3 3 3 5 5 5 6 3 2 3 4 5 4 4 4 4 5 7 7 8 9 10 9 10 11 12 12 15 16 16 16 15 15 14 13
7 6 4 4 4 4 4 3 4 4 4 6 4 4 6 4 4 4 4 4 4 5 5 5 6 5 5 6 6 8 8 9 11 11 12 13 15 16 16 16 15 14 13
7 6 4 5 5 5 5 4 4 4 5 4 4 5 6 6 6 5 3 4 4 6 7 6 6 5 4 5 6 7 7 8 9 10 11 11 12 14 16 16 16 15 14
6 7 5 4 4 5 5 3 3 4 4 4 5 5 6 7 7 6 3 3 6 6 5 3 4 4 4 4 5 5 5 6 8 9 10 11 11 11 13 15 15 15 15
6 7 6 5 4 4 5 4 3 4 4 4 5 5 6 6 8 6 3 4 6 4 3 4 4 4 4 4 4 4 4 4 5 8 9 10 11 11 11 13 14 15 16
5 6 6 6 4 4 3 4 3 4 3 4 4 4 5 6 7 5 3 4 5 4 4 4 4 3 3 3 5 5 4 4 4 5 6 9 10 10 11 11 11 13 15
5 5 6 6 4 3 3 3 3 2 2 3 3 4 5 5 5 5 3 3 4 3 3 4 3 3 2 3 3 3 4 4 5 4 5 5 6 9 10 11 10 10 12
4 5 6 5 5 4 3 2 3 3 2 3 2 3 4 5 5 3 3 3 3 3 3 3 3 2 1 2 2 2 2 2 3 4 3 4 4 7 8 10 11 11 12
4 4 4 5 5 4 4 2 3 3 2 2 2 2 3 5 4 4 3 2 3 3 3 2 2 2 1 1 1 2 2 1 1 2 4 4 4 4 5 9 11 11 12
5 4 4 4 5 4 4 3 4 3 2 2 2 2 2 3 3 3 3 2 2 2 3 1 2 1 1 1 2 1 2 2 2 2 2 3 4 5 4 6 9 11 13
5 5 4 4 4 4 4 4 3 2 2 2 3 3 2 2 2 2 2 2 2 2 2 2 2 2 1 1 0 1 1 0 1 2 2 2 3 3 3 5 6 8 11
5 5 4 3 3 4 4 5 4 4 4 3 3 3 2 2 1 2 2 1 1 2 2 2 2 2 1 1 1 1 1 1 1 1 2 3 3 1 3 3 5 6 9
Wind_Direction
86 86 76 72 73 72 71 68 70 71 72 75 79 79 77 79 78 75 73 73 71 68 67 67 66 64 64 65 65 64 62 66 69 74 71 68 69 70 70 69 76 77 77
95 92 80 78 78 76 74 72 72 72 72 74 77 79 80 81 80 78 75 73 70 68 67 67 65 63 65 66 65 62 61 63 66 73 78 73 69 71 70 68 73 77 77
94 94 86 81 80 80 77 73 74 74 74 75 78 80 83 83 81 80 77 73 70 69 68 66 63 60 62 71 68 63 58 55 55 58 72 81 73 69 71 72 75 77 77
91 90 88 86 82 82 79 74 75 76 76 78 80 83 84 83 80 79 77 73 72 71 69 66 63 57 65 73 68 61 53 46 45 56 65 74 72 71 71 72 74 75 75
90 91 90 89 85 83 79 76 76 77 79 81 82 84 84 83 81 79 78 74 73 71 69 66 64 61 65 67 62 53 43 39 52 60 67 70 69 71 71 71 73 74 75
98 97 97 94 90 86 81 78 78 77 80 82 84 86 84 84 81 78 76 75 73 72 70 67 67 67 64 60 53 41 29 33 62 69 70 71 70 72 72 72 72 73 75
102 104 107 102 98 93 87 84 81 81 83 85 85 86 86 86 82 79 77 75 74 74 73 71 71 68 63 56 49 39 29 39 74 74 71 70 70 73 73 72 72 71 72
112 112 116 118 111 103 95 90 86 85 86 88 89 90 91 90 87 83 80 79 78 78 79 77 74 70 63 57 50 42 35 39 64 71 72 69 72 74 73 72 70 71 74
112 120 129 128 122 115 107 102 98 97 97 98 99 101 101 100 96 92 87 86 85 84 81 81 79 75 69 63 54 45 40 45 56 61 67 66 69 72 72 72 72 73 74
111 118 125 128 133 130 123 119 119 118 114 117 123 124 119 114 111 104 94 91 91 90 89 88 87 87 81 71 59 47 45 53 66 62 59 66 70 72 71 73 74 76 77
105 110 116 124 129 134 135 134 146 145 142 144 156 162 156 144 127 109 100 103 102 101 102 103 106 106 103 87 64 47 49 68 73 67 59 67 73 74 74 75 75 77 77
118 117 113 117 120 119 120 140 161 154 159 182 173 167 163 112 101 106 118 122 125 123 125 140 161 170 155 98 80 60 59 62 68 69 61 69 72 74 74 75 74 76 75
110 99 107 115 113 119 113 119 118 122 146 119 83 98 97 111 130 130 140 149 157 153 142 133 159 126 95 87 82 75 68 63 64 68 63 68 70 73 74 75 76 75 74
118 116 111 115 118 117 105 105 115 106 104 86 67 82 82 74 90 105 114 118 121 100 81 74 69 62 63 70 78 79 77 77 73 74 66 66 68 71 73 74 73 73 73
128 122 109 102 97 101 100 102 97 79 66 80 52 66 78 64 69 79 85 80 78 87 90 69 66 63 59 53 64 71 72 76 82 81 72 68 67 67 68 70 69 70 73
134 135 127 116 106 98 96 83 80 79 70 69 50 42 76 73 69 70 70 67 64 64 72 80 75 74 74 70 65 68 68 75 82 89 87 75 69 66 64 65 64 68 71
130 129 123 115 107 100 88 74 75 72 76 69 47 34 60 65 72 78 70 77 72 66 61 65 67 70 73 73 68 67 60 64 74 77 85 87 79 69 65 62 60 62 66
121 119 116 108 96 97 100 91 83 74 69 70 57 31 42 63 77 76 66 71 78 74 72 65 65 65 65 72 69 67 63 61 67 72 74 79 81 76 68 65 62 61 61
122 123 125 103 98 90 100 99 76 81 72 66 63 43 35 51 69 75 66 77 77 69 58 65 62 69 74 80 88 83 68 59 60 71 69 68 75 82 82 73 69 65 62
126 126 124 110 102 97 95 91 73 60 70 68 61 51 36 51 65 73 71 76 83 70 57 66 68 60 74 73 82 85 83 77 62 61 68 65 65 72 74 79 77 69 63
133 126 123 128 123 108 99 99 94 75 66 69 65 65 50 48 58 75 79 68 82 82 77 82 84 76 71 84 80 72 65 72 81 63 65 72 68 72 74 72 73 74 67
140 140 135 137 134 118 104 108 113 103 89 80 63 59 60 58 50 63 97 90 87 89 77 77 83 74 60 82 105 116 103 59 57 76 71 72 66 67 73 74 72 75 75
147 146 145 147 138 134 131 115 101 87 78 92 87 68 59 66 61 47 51 90 111 117 122 118 111 99 69 350 58 118 124 135 110 59 72 75 70 62 67 73 71 73 80
159 149 151 149 148 148 138 132 140 148 149 133 116 119 106 90 74 62 48 75 98 105 120 143 109 92 90 344 334 21 95 128 135 126 60 78 81 72 66 70 72 72 76
160 154 156 157 154 155 157 156 167 152 148 131 121 119 106 100 93 76 57 66 81 103 111 95 82 77 78 82 44 51 61 78 123 132 141 118 74 67 78 76 78 83 85
151 143 150 156 164 165 172 169 175 162 151 137 132 136 123 112 97 78 74 81 86 91 98 102 104 103 90 70 53 96 130 115 125 110 136 142 120 94 87 83 84 88 92
Height
1521 1520 1520 1519 1519 1519 1519 1519 1518 1518 1518 1518 1518 1518 1519 1520 1521 1521 1521 1522 1522 1522 1522 1523 1523 1523 1523 1524 1524 1525 1525 1525 1526 1526 1526 1526 1527 1527 1527 1527 1527 1527 1528
1522 1521 1521 1521 1520 1520 1520 1520 1520 1520 1520 1520 1520 1520 1521 1522 1522 1523 1523 1523 1524 1524 1524 1524 1524 1524 1524 1524 1525 1526 1526 1527 1527 1528 1528 1528 1528 1528 1528 1529 1529 1529 1529
1523 1522 1522 1522 1522 1522 1522 1522 1522 1522 1522 1522 1522 1522 1523 1523 1524 1524 1525 1525 1525 1525 1525 1525 1525 1524 1522 1524 1526 1527 1528 1528 1529 1529 1529 1530 1530 1530 1530 1530 1530 1531 1531
1524 1523 1523 1523 1523 1524 1524 1523 1523 1523 1523 1524 1524 1524 1525 1525 1526 1526 1527 1527 1527 1527 1527 1527 1526 1523 1519 1523 1527 1529 1529 1530 1531 1531 1531 1531 1531 1532 1532 1532 1532 1532 1532
1525 1525 1525 1525 1525 1525 1525 1525 1525 1525 1525 1526 1526 1526 1527 1527 1528 1528 1528 1529 1529 1529 1529 1529 1528 1526 1525 1527 1529 1530 1531 1532 1532 1532 1532 1533 1533 1533 1533 1533 1533 1534 1534
1526 1526 1526 1527 1527 1527 1527 1527 1527 1527 1527 1528 1528 1529 1529 1529 1530 1530 1530 1531 1531 1531 1531 1531 1531 1530 1530 1530 1532 1532 1533 1533 1534 1534 1534 1534 1534 1534 1534 1535 1535 1535 1536
1528 1528 1528 1528 1528 1528 1529 1529 1529 1529 1529 1530 1530 1530 1531 1531 1532 1532 1532 1532 1532 1533 1533 1533 1533 1533 1533 1533 1534 1534 1535 1535 1535 1535 1535 1535 1536 1536 1536 1536 1536 1537 1537
1529 1529 1530 1530 1530 1530 1530 1531 1531 1531 1531 1532 1532 1532 1533 1533 1533 1533 1534 1534 1534 1534 1535 1535 1535 1535 1535 1535 1536 1536 1536 1536 1536 1536 1537 1537 1537 1537 1537 1538 1538 1538 1538
1531 1531 1531 1532 1532 1532 1532 1533 1533 1533 1533 1534 1534 1534 1535 1535 1535 1535 1536 1536 1536 1536 1537 1537 1537 1537 1537 1538 1538 1538 1538 1538 1538 1538 1538 1538 1539 1539 1539 1539 1539 1539 1540
1532 1533 1534 1534 1534 1534 1534 1535 1535 1535 1535 1536 1536 1536 1537 1537 1537 1537 1537 1538 1538 1538 1538 1539 1539 1539 1540 1540 1540 1540 1540 1540 1540 1539 1539 1540 1540 1540 1540 1540 1540 1541 1541
1534 1535 1535 1536 1536 1536 1536 1537 1537 1537 1537 1538 1538 1539 1539 1539 1539 1539 1540 1540 1540 1540 1541 1541 1541 1541 1542 1542 1542 1542 1542 1541 1541 1541 1541 1541 1541 1542 1542 1542 1542 1542 1542
1535 1536 1537 1537 1538 1539 1539 1539 1539 1539 1539 1539 1540 1541 1541 1541 1542 1542 1542 1541 1542 1542 1543 1543 1543 1543 1544 1544 1544 1544 1543 1543 1543 1543 1543 1543 1543 1543 1543 1543 1543 1543 1543
1536 1537 1538 1539 1539 1540 1540 1541 1541 1541 1542 1542 1543 1543 1543 1543 1543 1543 1543 1543 1543 1544 1544 1545 1545 1545 1546 1546 1546 1545 1545 1545 1545 1545 1545 1545 1545 1545 1545 1544 1544 1544 1544
1537 1538 1539 1540 1541 1541 1541 1542 1542 1543 1543 1544 1544 1544 1544 1544 1544 1544 1544 1545 1545 1546 1546 1547 1547 1547 1548 1548 1548 1547 1547 1546 1547 1546 1546 1546 1546 1546 1546 1546 1546 1545 1545
1537 1538 1539 1540 1541 1542 1542 1543 1544 1544 1545 1545 1545 1546 1546 1546 1546 1546 1546 1546 1547 1547 1548 1548 1548 1548 1549 1549 1549 1549 1549 1548 1548 1548 1548 1548 1548 1548 1547 1547 1547 1547 1546
1537 1538 1540 1541 1542 1542 1543 1544 1545 1545 1546 1546 1546 1547 1547 1547 1547 1547 1547 1547 1548 1549 1549 1549 1550 1550 1550 1550 1550 1550 1550 1550 1550 1550 1550 1550 1549 1549 1549 1549 1548 1548 1547
1537 1539 1540 1541 1542 1543 1544 1545 1546 1546 1546 1547 1547 1547 1548 1548 1547 1547 1548 1548 1549 1549 1550 1550 1551 1551 1551 1551 1551 1551 1552 1552 1552 1552 1551 1551 1551 1550 1550 1550 1549 1549 1548
1537 1539 1540 1541 1542 1543 1544 1545 1546 1547 1547 1547 1548 1548 1549 1549 1548 1548 1549 1550 1550 1550 1551 1551 1551 1551 1551 1552 1552 1553 1553 1553 1554 1553 1553 1553 1552 1552 1552 1551 1550 1550 1550
1537 1539 1540 1541 1542 1543 1545 1546 1547 1547 1548 1548 1548 1549 1549 1549 1549 1549 1550 1551 1551 1551 1551 1552 1552 1552 1552 1553 1553 1554 1555 1555 1555 1555 1555 1555 1554 1554 1553 1552 1552 1551 1551
1537 1538 1540 1541 1542 1543 1545 1546 1547 1547 1548 1548 1549 1549 1550 1550 1550 1550 1551 1551 1551 1552 1552 1552 1553 1553 1554 1554 1555 1555 1556 1556 1556 1556 1556 1556 1556 1555 1554 1553 1553 1552 1551
1537 1538 1539 1540 1542 1543 1544 1545 1546 1547 1548 1548 1549 1549 1550 1550 1550 1551 1551 1552 1552 1552 1553 1553 1554 1554 1555 1556 1556 1556 1557 1557 1558 1558 1557 1557 1557 1557 1556 1555 1554 1553 1552
1536 1537 1538 1540 1541 1543 1544 1545 1546 1547 1547 1548 1548 1549 1550 1550 1550 1551 1551 1552 1552 1553 1553 1554 1555 1555 1556 1556 1557 1557 1558 1560 1559 1559 1559 1558 1558 1558 1557 1556 1555 1554 1553
1535 1536 1538 1539 1541 1542 1543 1545 1546 1547 1547 1548 1548 1549 1549 1550 1550 1551 1551 1552 1552 1553 1553 1554 1555 1555 1556 1556 1557 1558 1558 1558 1559 1560 1559 1559 1559 1558 1558 1557 1556 1555 1554
1534 1535 1537 1538 1540 1541 1542 1544 1545 1546 1547 1548 1548 1549 1549 1550 1550 1551 1551 1552 1552 1553 1553 1554 1554 1555 1556 1556 1557 1557 1558 1558 1559 1560 1561 1560 1560 1559 1559 1558 1557 1556 1555
1532 1534 1536 1537 1539 1540 1541 1543 1544 1545 1546 1547 1548 1548 1549 1550 1550 1551 1551 1551 1552 1552 1553 1553 1554 1555 1555 1556 1556 1557 1557 1558 1558 1559 1560 1561 1560 1560 1560 1559 1558 1557 1556
1531 1533 1534 1536 1537 1538 1540 1541 1543 1544 1545 1546 1547 1548 1548 1549 1550 1550 1551 1551 1552 1552 1552 1553 1553 1554 1555 1555 1556 1556 1557 1557 1557 1558 1558 1559 1560 1560 1560 1559 1559 1558 1557